NOAA 16 DEB, 41705

Orbit data source: Space-Track

NOAA 16 DEB, 41705 is space debris in SSO originally from a launch on Thu, 21 Sep 2000 UTC launched from the Air Force Western Test Range (AFWTR). Debris objects in space refer to the collection of defunct objects orbiting the Earth. Examples of debris include non-operational satellites, rocket bodies, and fragments generated from explosions, collisions, or faulty payload assembly.

Loading next visibility...
Identifier
41705, 2000-055PK
Orbit
SSO
Country
Flag of USUS
Related business
Manufacturer
Unknown
Mission
Spacecraft
Bus & Motor
Unknown
Mass
Unknown
Launch date (UTC)
2000-09-21 (25 years ago)
Launch vehicle
Unknown
Launch site
Air Force Western Test Range (AFWTR)
Object type
Payload
Rocket body
Debris
Shape & HBR
Unknown shape, 0.1 m
Radar Cross Section
Small (<0.1 m²)

Expand to show TLE details & history
Last TLE update: 12 hours ago

TLE from 12 hours ago
0 NOAA 16 DEB
1 41705U 00055PK  25353.95155816  .00000966  00000-0  46112-3 0  9993
2 41705  98.6420  63.9628 0015038  62.9686 297.3025 14.21455077500162
Epoch: 2025-12-19T22:50Z
TLE epoch observation values (Epoch: 2025-12-19T22:50:14.625Z)
Latitude
0.00005°
Longitude
-7.38349°
Altitude
818.401 km
Speed
7.447 km/s
True Right ascension
04h 15m 51s
True Declination
0° 00' 00"
Sunlit
Object was in full shadow at epoch
Visualization orbit readout
Latitude
Unknown
Longitude
Unknown
Altitude
Unknown
Speed
Unknown
Apparent Right ascension
Unknown
Apparent Declination
Unknown
Sunlit
N/A
Visualization observer readout
Local Sidereal Time
09:26:42
Azimuth
Unknown
Elevation
Unknown
Doppler factor
Unknown
Orbital elements
Apogee altitude
828.41 km
Perigee altitude
806.769 km
Semi-major axis
7,195.726 km
Eccentricity
0.0015
Inclination
98.642°
RAAN
63.9628°
Arg. of periapsis
62.9686°
True anomaly
297.14924°
Mean anomaly
297.3025°
Eccentric anomaly
297.22588°
Mean motion
3.55575 °/min
Orbital period
101.24 mins
BSTAR
0.00046112
Loading maneuver chart data...
Computing Atmospheric mass density...
Loading historical data...
Loading historical data...
Loading historical data...
Loading historical data...
Loading historical data...
Loading historical data...
Loading historical data...

Documentation

Showing up to 5 results
|